Retour au catalogue

FENGYUN 1C DEB

ActifPO
NORAD 30015·DEBRIS·🇨🇳 China

Lancé May 10, 1999 depuis Taiyuan Satellite Launch Center

Loading…

Prochains Passages (prochaines 24 heures)

TLE

FraisSource: Space-Track

Époque: Sep 14, 2026, 13:08 UTC

1 30015U 99025MQ  26257.54741120  .00000838  00000-0  33074-3 0  9999
2 30015  99.2210 282.4071 0038295  50.3525 102.4065 14.31572067 21125

Suivez FENGYUN 1C DEB en temps réel avec AllMySat

Download on the App Store